Massena, NY

12:20 PM EDT on March 25, 2017 (GMT -0400)
Massena International-Richards

Weather History for KMSS - July, 2013

Change the Weather History Date:

Monday, July 29, 2013

  Actual Average Record
Temperature  
Mean Temperature 64 °F 69 °F  
Max Temperature 74 °F 80 °F 95 °F (1949)
Min Temperature 54 °F 58 °F 43 °F (1987)
Degree Days  
Heating Degree Days 2 1  
Month to date heating degree days 29  
Since 1 June heating degree days 125  
Since 1 July heating degree days 29  
Cooling Degree Days 0 5  
Month to date cooling degree days 194 142  
Year to date cooling degree days 294 231  
Since 1 June cooling degree days 271 217  
Growing Degree Days 13 (Base 50)    
Moisture  
Dew Point 56 °F    
Average Humidity 71    
Maximum Humidity 93    
Minimum Humidity 49    
Precipitation  
Precipitation 0.18 in 0.12 in 1.15 in (1974)
Month to date precipitation 3.59 3.34  
Year to date precipitation 19.51 18.79  
Sea Level Pressure  
Sea Level Pressure 30.02 in    
Wind  
Wind Speed 7 mph (SW)    
Max Wind Speed 22 mph    
Max Gust Speed 26 mph    
Visibility 8 miles    
Events Rain , Thunderstorm    
T = Trace of Precipitation, MM = Missing Value Source: NWS Daily Summary

Daily Weather History Graph

Daily Weather History Graph

Search for Another Location

Airport or City:

Trip Planner

Search our weather history database for the weather conditions in past years. The results will help you decide how hot, cold, wet, or windy it might be!

Date:

Astronomy

Jul. 29, 2013 Rise Set
Actual Time 5:41 AM EDT 8:29 PM EDT
Civil Twilight 5:07 AM EDT 9:03 PM EDT
Nautical Twilight 4:24 AM EDT 9:46 PM EDT
Astronomical Twilight 3:34 AM EDT 10:36 PM EDT
Moon No Moon Rise 1:44 PM EDT (7/29)
Length of Visible Light 15h 55m
Length of Day
14h 47m
Waning Gibbous, 51% of the Moon is Illuminated
Jul 29
Waning Gibbous
Jul 29
Last Quarter
Aug 6
New
Aug 14
First Quarter
Aug 20
Full

Hourly Weather History & Observations

Time (EDT) Temp. Dew Point Humidity Pressure Visibility Wind Dir Wind Speed Gust Speed Precip Events Conditions
12:53 AM 64.0 °F 61.0 °F 90% 29.96 in 10.0 mi SW 6.9 mph - N/A   Overcast
1:53 AM 61.0 °F 55.9 °F 83% 29.97 in 7.0 mi West 8.1 mph - 0.01 in Rain Light Rain
2:53 AM 61.0 °F 57.0 °F 87% 29.97 in 10.0 mi SSW 5.8 mph - 0.00 in   Overcast
3:53 AM 59.0 °F 55.9 °F 90% 29.98 in 10.0 mi South 4.6 mph - N/A   Mostly Cloudy
4:53 AM 57.0 °F 54.0 °F 89% 29.98 in 10.0 mi Calm Calm - N/A   Clear
5:20 AM 55.4 °F 53.6 °F 94% 29.99 in 1.8 mi Calm Calm - N/A   Clear
5:28 AM 55.4 °F 53.6 °F 94% 29.99 in 1.2 mi Calm Calm - N/A   Clear
5:34 AM 55.4 °F 53.6 °F 94% 29.99 in 2.0 mi Calm Calm - N/A   Clear
5:42 AM 53.6 °F 53.6 °F 100% 29.99 in 8.0 mi Calm Calm - N/A   Clear
5:53 AM 55.0 °F 53.1 °F 93% 30.00 in 9.0 mi Calm Calm - N/A   Clear
6:53 AM 57.9 °F 55.9 °F 93% 30.00 in 10.0 mi Calm Calm - N/A   Scattered Clouds
7:53 AM 61.0 °F 57.0 °F 87% 30.01 in 10.0 mi SW 8.1 mph - N/A   Mostly Cloudy
8:53 AM 64.0 °F 57.9 °F 80% 30.01 in 10.0 mi SSW 5.8 mph - N/A   Overcast
9:53 AM 68.0 °F 59.0 °F 73% 30.01 in 10.0 mi SSW 8.1 mph - N/A   Clear
10:53 AM 70.0 °F 57.9 °F 65% 30.01 in 10.0 mi SW 8.1 mph - N/A   Clear
11:19 AM 66.2 °F 55.4 °F 68% 30.03 in 10.0 mi WSW 16.1 mph 24.2 mph 0.00 in Rain , Thunderstorm Light Rain
11:26 AM 60.8 °F 55.4 °F 82% 30.05 in 1.8 mi West 16.1 mph 26.5 mph 0.10 in Rain , Thunderstorm Heavy Rain
11:41 AM 59.0 °F 55.4 °F 88% 30.04 in 3.0 mi WNW 8.1 mph - 0.15 in Rain , Thunderstorm Light Rain
11:53 AM 59.0 °F 57.0 °F 93% 30.05 in 10.0 mi West 4.6 mph - 0.15 in Rain , Thunderstorm Light Rain
12:00 PM 60.8 °F 57.2 °F 88% 30.04 in 9.0 mi WNW 3.5 mph - 0.00 in Rain Light Rain
12:53 PM 63.0 °F 59.0 °F 87% 30.03 in 10.0 mi SW 5.8 mph - 0.02 in   Overcast
1:53 PM 68.0 °F 60.1 °F 76% 30.02 in 10.0 mi SW 10.4 mph - 0.00 in   Mostly Cloudy
2:53 PM 72.0 °F 59.0 °F 64% 30.02 in 10.0 mi SW 9.2 mph - N/A   Mostly Cloudy
3:53 PM 73.0 °F 57.9 °F 59% 30.02 in 10.0 mi SW 11.5 mph 18.4 mph N/A   Scattered Clouds
4:53 PM 73.0 °F 54.0 °F 51% 30.01 in 10.0 mi SW 15.0 mph 20.7 mph N/A   Clear
5:53 PM 72.0 °F 53.1 °F 51% 30.02 in 10.0 mi WSW 13.8 mph 21.9 mph N/A   Clear
6:53 PM 69.1 °F 53.1 °F 57% 30.03 in 10.0 mi WSW 10.4 mph - N/A   Clear
7:53 PM 68.0 °F 52.0 °F 56% 30.06 in 10.0 mi WSW 10.4 mph 19.6 mph N/A   Overcast
8:53 PM 64.9 °F 54.0 °F 68% 30.07 in 10.0 mi WSW 8.1 mph - N/A   Mostly Cloudy
9:53 PM 63.0 °F 55.0 °F 75% 30.08 in 10.0 mi SW 4.6 mph - N/A   Overcast
10:53 PM 59.0 °F 54.0 °F 83% 30.07 in 10.0 mi SSW 3.5 mph - N/A   Mostly Cloudy
11:53 PM 61.0 °F 55.9 °F 83% 30.09 in 10.0 mi SW 4.6 mph - 0.00 in   Mostly Cloudy